Location: Newark
(44.9333°N, 0.5667°E)
Time: 12:56:20
(UTC+00:00)

UWE-3 - Pass Details

Date: 19 February 2020
Orbit: 585 x 683 km, 97.6° (Epoch: 03 April)

Event Time Altitude Azimuth Distance (km) Brightness Sun altitude
Rises 04:27:18 0° 27° (NNE) 3,024 ? -26.5°
Reaches altitude 10° 04:30:03 10° 43° (NE) 2,116 ? -26.0°
Maximum altitude 04:33:31 21° 92° (E) 1,532 ? -25.4°
Drops below altitude 10° 04:36:59 10° 140° (SE) 2,121 ? -24.8°
Sets 04:39:44 0° 157° (SSE) 3,032 ? -24.3°
